FW7501 Weather Reports


Display with metric or nautical units.
time (UTC)temp
F
wind
direction
speed
MPH
gust
MPH
rain 1hr
in
rain 24hr
in
rain mn
in
humidity
%
barometer
mb
20260508233007 51 205 9.0 16.0 0.00 0.01 0.00 90 1028.0
20260508232508 50 243 11.0 16.0 0.00 0.01 0.00 91 1028.0
20260508232008 51 213 8.0 12.0 0.00 0.01 0.00 91 1028.0
20260508231516 51 208 7.0 14.0 0.00 0.01 0.00 91 1027.9
20260508231007 50 185 8.0 14.0 0.00 0.01 0.00 90 1027.9
20260508230504 50 196 10.0 14.0 0.00 0.01 0.00 90 1027.9
20260508225507 50 185 8.0 14.0 0.00 0.01 0.00 90 1027.9
20260508224520 50 191 10.0 16.0 0.00 0.01 0.00 91 1027.8
20260508223506 50 214 8.0 14.0 0.00 0.01 0.00 90 1027.8
20260508223023 50 210 6.0 15.0 0.00 0.01 0.00 90 1027.8
20260508222504 50 189 9.0 15.0 0.00 0.01 0.00 90 1027.7
20260508222012 50 215 10.0 14.0 0.00 0.01 0.00 90 1027.7
20260508221525 50 191 6.0 11.0 0.00 0.01 0.00 90 1027.6
20260508221004 50 195 7.0 12.0 0.00 0.01 0.00 90 1027.6
20260508220508 50 214 8.0 14.0 0.00 0.01 0.00 90 1027.5
20260508220023 50 214 9.0 14.0 0.00 0.01 0.00 90 1027.5
20260508215509 50 205 7.0 11.0 0.00 0.01 0.00 90 1027.6
20260508215010 50 185 8.0 13.0 0.00 0.01 0.00 90 1027.5
20260508214010 50 200 8.0 13.0 0.00 0.01 0.00 90 1027.4
20260508213507 50 185 6.0 12.0 0.00 0.01 0.00 90 1027.4
20260508213031 50 189 7.0 12.0 0.00 0.01 0.00 90 1027.4
20260508212508 50 175 7.0 12.0 0.00 0.01 0.00 90 1027.4
20260508212003 50 191 9.0 12.0 0.00 0.01 0.00 90 1027.3
20260508211510 50 200 5.0 12.0 0.00 0.01 0.00 90 1027.4
20260508211009 50 202 8.0 11.0 0.00 0.01 0.00 90 1027.3
20260508210504 49 190 7.0 11.0 0.00 0.01 0.00 90 1027.3
20260508210015 50 197 4.0 11.0 0.00 0.01 0.00 90 1027.2
20260508205507 49 199 4.0 11.0 0.00 0.01 0.00 90 1027.2
20260508205009 49 206 5.0 11.0 0.00 0.01 0.00 90 1027.2
20260508204522 49 196 8.0 12.0 0.00 0.01 0.00 90 1027.1
20260508204005 49 180 7.0 13.0 0.00 0.01 0.00 90 1026.9
20260508203510 49 189 8.0 13.0 0.00 0.01 0.00 90 1026.9
20260508203018 49 204 8.0 13.0 0.00 0.01 0.00 90 1027.1
20260508202505 49 210 7.0 13.0 0.00 0.01 0.00 90 1027.1
20260508202008 49 197 8.0 12.0 0.00 0.01 0.00 90 1027.0
20260508201519 49 217 7.0 11.0 0.00 0.01 0.00 90 1026.9
20260508201013 49 199 8.0 12.0 0.00 0.01 0.00 90 1026.9
20260508200504 49 205 5.0 12.0 0.00 0.01 0.00 90 1027.0
20260508200012 49 202 5.0 10.0 0.00 0.01 0.00 90 1026.9
20260508195507 49 193 4.0 13.0 0.00 0.01 0.00 90 1026.9
20260508195007 49 193 9.0 13.0 0.00 0.01 0.00 90 1026.9
20260508194517 49 214 6.0 13.0 0.00 0.01 0.00 90 1026.8
20260508194009 49 222 8.0 13.0 0.00 0.01 0.00 90 1026.7
20260508193507 49 193 6.0 11.0 0.00 0.01 0.00 90 1026.7
20260508193019 49 199 6.0 11.0 0.00 0.01 0.00 90 1026.6
20260508192010 49 185 6.0 10.0 0.00 0.01 0.00 90 1026.4
20260508191530 49 185 7.0 12.0 0.00 0.01 0.00 89 1026.4
20260508191007 49 180 8.0 12.0 0.00 0.01 0.00 89 1026.4
20260508190508 49 189 7.0 14.0 0.00 0.01 0.00 89 1026.3
20260508190033 49 197 7.0 14.0 0.00 0.01 0.00 89 1026.4
20260508185511 49 191 7.0 12.0 0.00 0.01 0.00 89 1026.3
20260508185010 49 189 7.0 12.0 0.00 0.02 0.00 89 1026.4
20260508184518 49 180 7.0 11.0 0.00 0.02 0.00 89 1026.4
20260508184004 49 185 7.0 11.0 0.00 0.02 0.00 89 1026.3
20260508183507 49 185 8.0 11.0 0.00 0.02 0.00 89 1026.3
20260508183022 49 193 5.0 11.0 0.00 0.01 0.00 89 1026.2
20260508182509 49 185 6.0 11.0 0.00 0.01 0.00 89 1026.3
20260508182008 49 201 5.0 9.0 0.00 0.01 0.00 89 1026.2
20260508181540 49 190 5.0 10.0 0.00 0.01 0.00 89 1026.2
20260508181011 49 189 7.0 11.0 0.00 0.01 0.00 89 1026.1
20260508180508 49 224 7.0 11.0 0.00 0.01 0.00 89 1026.2
20260508180026 49 214 7.0 11.0 0.00 0.01 0.00 89 1026.2
20260508175510 49 218 7.0 11.0 0.00 0.01 0.00 88 1026.2
20260508175009 49 217 6.0 10.0 0.00 0.01 0.00 88 1026.2
20260508174530 49 220 5.0 10.0 0.00 0.01 0.00 88 1026.2
20260508174009 49 212 3.0 7.0 0.00 0.01 0.00 88 1026.1
20260508173509 49 210 4.0 7.0 0.00 0.01 0.00 88 1026.1
20260508173003 49 195 4.0 8.0 0.00 0.01 0.00 88 1026.1
20260508172505 49 207 4.0 8.0 0.00 0.01 0.00 88 1026.2
20260508172003 49 189 3.0 5.0 0.00 0.01 0.00 88 1026.2
20260508171505 49 219 2.0 5.0 0.00 0.01 0.00 88 1026.2
20260508171003 49 196 3.0 5.0 0.00 0.01 0.00 88 1026.3
20260508170004 49 196 2.0 7.0 0.00 0.01 0.00 88 1026.2
20260508165502 49 194 4.0 7.0 0.00 0.01 0.00 88 1026.1
20260508164505 49 210 4.0 6.0 0.00 0.01 0.00 88 1026.1
20260508164006 49 205 3.0 6.0 0.00 0.01 0.00 87 1026.1
20260508163504 49 221 2.0 5.0 0.00 0.01 0.00 87 1026.1
20260508162505 50 194 2.0 5.0 0.00 0.01 0.00 87 1026.2
20260508162006 49 202 3.0 5.0 0.00 0.01 0.00 87 1026.2
20260508161506 49 193 3.0 5.0 0.00 0.01 0.00 87 1026.2
20260508161003 49 185 1.0 4.0 0.00 0.01 0.00 87 1026.2
20260508160503 49 210 1.0 4.0 0.00 0.01 0.00 87 1026.2
20260508160006 49 207 3.0 4.0 0.00 0.01 0.00 87 1026.2
20260508155503 49 205 2.0 4.0 0.00 0.01 0.00 87 1026.2
20260508155003 49 205 2.0 4.0 0.00 0.01 0.00 87 1026.2
20260508153504 49 185 1.0 5.0 0.00 0.01 0.00 86 1026.3
20260508153012 49 198 2.0 5.0 0.00 0.01 0.00 86 1026.1
20260508152503 49 195 2.0 3.0 0.00 0.01 0.00 86 1026.1
20260508152008 49 214 1.0 5.0 0.00 0.01 0.00 86 1026.2
20260508151508 49 212 3.0 5.0 0.00 0.01 0.00 86 1026.2
20260508151006 49 209 3.0 5.0 0.00 0.01 0.00 86 1026.2
20260508150513 49 218 3.0 5.0 0.00 0.01 0.00 86 1026.2
20260508150005 49 217 3.0 7.0 0.00 0.01 0.00 86 1026.2
20260508145505 49 185 3.0 9.0 0.00 0.01 0.00 86 1026.2
20260508145003 49 158 6.0 10.0 0.00 0.01 0.00 86 1026.2
20260508144503 49 200 7.0 11.0 0.00 0.01 0.00 86 1026.2
20260508144003 49 204 6.0 11.0 0.00 0.01 0.00 85 1026.2
20260508143004 49 193 6.0 9.0 0.00 0.01 0.00 85 1026.2
20260508142004 49 180 5.0 10.0 0.00 0.01 0.00 85 1026.3
20260508141514 49 201 6.0 8.0 0.00 0.01 0.00 85 1026.2
20260508141005 49 175 3.0 6.0 0.00 0.01 0.00 85 1026.2
20260508140017 49 185 3.0 6.0 0.00 0.01 0.00 85 1026.2
20260508135003 49 189 3.0 7.0 0.00 0.01 0.01 84 1026.2
20260508134003 49 189 2.0 5.0 0.00 0.01 0.01 84 1026.3
20260508133506 49 212 3.0 5.0 0.00 0.01 0.01 84 1026.3
20260508133007 49 206 4.0 6.0 0.00 0.01 0.01 84 1026.4
20260508132505 49 226 2.0 7.0 0.00 0.01 0.01 84 1026.5
20260508131512 49 226 3.0 5.0 0.00 0.01 0.01 84 1026.6
20260508130008 50 200 3.0 7.0 0.00 0.01 0.01 83 1026.6
20260508125507 50 207 5.0 8.0 0.00 0.01 0.01 83 1026.6
20260508125009 50 216 2.0 9.0 0.00 0.01 0.01 83 1026.6
20260508124505 50 203 4.0 9.0 0.00 0.01 0.01 83 1026.6
20260508124008 50 237 3.0 10.0 0.00 0.01 0.01 83 1026.6
20260508123022 51 206 5.0 14.0 0.00 0.01 0.01 83 1026.4
20260508122503 51 200 8.0 14.0 0.00 0.01 0.01 83 1026.4
20260508122006 51 211 6.0 14.0 0.00 0.01 0.01 83 1026.3
20260508121509 51 202 8.0 14.0 0.00 0.01 0.01 83 1026.4
20260508121003 51 220 7.0 14.0 0.00 0.01 0.01 83 1026.4
20260508120504 51 213 8.0 11.0 0.00 0.01 0.01 83 1026.4
20260508120021 51 203 5.0 10.0 0.00 0.01 0.01 83 1026.5
20260508115505 51 208 6.0 9.0 0.00 0.01 0.01 84 1026.5
20260508113508 51 208 6.0 10.0 0.00 0.01 0.01 83 1026.1
20260508113016 51 192 5.0 10.0 0.00 0.01 0.01 83 1026.0
20260508112508 51 191 5.0 10.0 0.00 0.01 0.01 83 1026.0
20260508112009 51 168 6.0 10.0 0.00 0.01 0.01 83 1026.0
20260508111514 52 158 6.0 10.0 0.00 0.01 0.01 83 1026.0
20260508111012 52 175 6.0 11.0 0.00 0.01 0.01 83 1026.0
20260508110503 52 138 8.0 11.0 0.00 0.01 0.01 83 1026.0
20260508110007 52 194 6.0 10.0 0.00 0.01 0.01 83 1026.0
20260508105505 52 201 5.0 9.0 0.00 0.01 0.01 83 1026.0
20260508105008 52 175 6.0 9.0 0.00 0.01 0.01 83 1026.0
20260508104512 52 165 4.0 8.0 0.00 0.01 0.01 83 1026.0
20260508104009 52 195 4.0 10.0 0.00 0.01 0.01 83 1025.9
20260508103505 52 194 5.0 11.0 0.00 0.01 0.01 83 1026.0
20260508103029 52 195 8.0 11.0 0.00 0.01 0.01 83 1026.0
20260508102508 52 175 6.0 12.0 0.00 0.01 0.01 83 1025.8
20260508102004 52 180 8.0 12.0 0.00 0.01 0.01 84 1025.7
20260508101008 52 180 8.0 15.0 0.00 0.01 0.01 84 1025.6
20260508100510 52 180 6.0 15.0 0.00 0.01 0.01 83 1025.6
20260508095507 52 194 6.0 12.0 0.00 0.01 0.01 83 1025.6
20260508095013 52 189 6.0 12.0 0.00 0.01 0.01 82 1025.5
20260508094512 52 170 6.0 12.0 0.00 0.01 0.01 82 1025.7
20260508094007 52 168 7.0 12.0 0.00 0.01 0.01 82 1025.6
20260508093507 52 172 5.0 11.0 0.00 0.01 0.01 82 1025.5
20260508093018 52 199 7.0 11.0 0.00 0.01 0.01 81 1025.4
20260508092008 52 180 7.0 10.0 0.00 0.01 0.01 80 1025.4
20260508091008 52 185 6.0 11.0 0.00 0.01 0.01 80 1025.3
20260508090508 52 162 8.0 11.0 0.00 0.01 0.01 80 1025.3
20260508090029 53 185 8.0 11.0 0.00 0.01 0.01 80 1025.3
20260508085508 53 160 6.0 11.0 0.00 0.01 0.01 80 1025.2
20260508085005 53 175 7.0 11.0 0.00 0.01 0.01 80 1025.2
20260508084527 53 165 7.0 10.0 0.00 0.01 0.01 80 1025.2
20260508084013 53 158 6.0 9.0 0.00 0.01 0.01 80 1025.2
20260508083507 53 169 5.0 8.0 0.00 0.01 0.01 80 1025.1
20260508083006 53 165 4.0 9.0 0.00 0.01 0.01 80 1025.0
20260508082503 53 180 5.0 12.0 0.00 0.01 0.01 80 1025.0
20260508081504 53 155 5.0 10.0 0.00 0.01 0.01 81 1024.8
20260508081006 53 166 5.0 9.0 0.00 0.01 0.01 80 1024.8
20260508080503 53 163 4.0 6.0 0.00 0.01 0.01 80 1024.8
20260508080004 53 152 3.0 9.0 0.00 0.01 0.01 80 1024.7
20260508075505 53 162 4.0 9.0 0.00 0.01 0.01 80 1024.7
20260508075004 53 169 5.0 10.0 0.00 0.01 0.01 80 1024.7
20260508074005 53 185 7.0 11.0 0.00 0.01 0.01 80 1024.6
20260508073505 53 175 5.0 9.0 0.00 0.01 0.01 80 1024.6
20260508073011 53 155 5.0 10.0 0.00 0.01 0.01 80 1024.4
20260508072003 53 160 7.0 13.0 0.00 0.01 0.01 79 1024.2
20260508071521 53 160 7.0 14.0 0.00 0.01 0.01 79 1024.2
20260508071003 54 185 8.0 15.0 0.00 0.01 0.01 79 1024.3
20260508070512 54 185 10.0 15.0 0.00 0.01 0.01 78 1024.2
20260508070016 54 180 8.0 14.0 0.00 0.01 0.01 78 1024.1
20260508065504 54 170 11.0 14.0 0.00 0.01 0.01 78 1024.0
20260508065008 54 189 8.0 17.0 0.00 0.01 0.01 78 1024.1
20260508064505 54 172 11.0 17.0 0.00 0.01 0.01 77 1024.1
20260508063505 54 164 7.0 12.0 0.00 0.01 0.01 77 1024.0
20260508062504 54 185 7.0 15.0 0.00 0.01 0.01 76 1023.9
20260508062007 54 159 9.0 16.0 0.00 0.01 0.01 75 1023.8
20260508061507 54 191 11.0 16.0 0.00 0.01 0.01 75 1023.8
20260508061010 55 167 9.0 14.0 0.00 0.01 0.01 74 1023.8
20260508055508 55 195 8.0 14.0 0.00 0.01 0.01 74 1023.8
20260508055004 55 175 9.0 14.0 0.00 0.01 0.01 73 1024.0
20260508054008 55 149 7.0 15.0 0.00 0.01 0.01 73 1023.8
20260508053504 55 158 11.0 15.0 0.00 0.01 0.01 72 1023.8
20260508053020 55 164 8.0 16.0 0.00 0.01 0.01 73 1023.6
20260508052510 55 194 10.0 16.0 0.00 0.01 0.01 73 1023.6
20260508050508 56 154 10.0 16.0 0.00 0.01 0.01 74 1023.6
20260508050021 56 166 12.0 17.0 0.00 0.01 0.01 74 1023.7
20260508045509 55 189 12.0 17.0 0.00 0.01 0.01 73 1023.7
20260508045008 55 175 11.0 17.0 0.00 0.01 0.01 74 1023.7
20260508044514 55 135 10.0 17.0 0.00 0.01 0.01 74 1023.7
20260508044010 55 175 11.0 18.0 0.00 0.01 0.01 74 1023.6
20260508043010 55 164 10.0 16.0 0.00 0.01 0.01 73 1023.6
20260508042006 56 166 10.0 21.0 0.00 0.01 0.01 70 1023.4
20260508041508 57 195 12.0 21.0 0.00 0.01 0.01 68 1023.4
20260508041007 58 127 11.0 20.0 0.00 0.01 0.01 67 1023.3
20260508040508 57 226 11.0 17.0 0.00 0.01 0.01 68 1023.3
20260508040018 56 224 13.0 17.0 0.00 0.01 0.01 70 1023.3
20260508035507 56 216 11.0 17.0 0.00 0.01 0.01 72 1023.3
20260508035005 56 203 10.0 17.0 0.00 0.01 0.01 71 1023.3
20260508034517 56 175 11.0 21.0 0.00 0.01 0.01 71 1023.5
20260508033510 56 185 13.0 20.0 0.00 0.01 0.01 70 1023.5
20260508032509 56 189 13.0 20.0 0.00 0.01 0.01 72 1023.5
20260508031528 56 253 10.0 15.0 0.00 0.01 0.01 77 1023.5
20260508031010 55 198 10.0 15.0 0.00 0.01 0.01 80 1023.6
20260508030015 54 172 9.0 14.0 0.00 0.02 0.01 81 1023.7
20260508025508 54 191 8.0 14.0 0.00 0.02 0.01 80 1023.7
20260508025005 54 217 8.0 19.0 0.00 0.02 0.01 79 1023.7
20260508024513 55 237 13.0 22.0 0.00 0.02 0.01 78 1023.7
20260508024008 55 229 11.0 22.0 0.00 0.02 0.01 79 1024.0
20260508023508 54 204 10.0 19.0 0.00 0.02 0.01 81 1024.0
20260508022009 53 222 11.0 25.0 0.00 0.02 0.01 83 1024.2
20260508020505 53 199 10.0 18.0 0.00 0.01 0.00 81 1024.1
20260508015506 54 175 10.0 20.0 0.00 0.01 0.00 83 1024.2
20260508014541 53 199 11.0 16.0 0.00 0.01 0.00 84 1024.4
20260508014010 53 237 7.0 16.0 0.00 0.01 0.00 84 1024.4
20260508013508 53 205 11.0 19.0 0.00 0.01 0.00 83 1024.3
20260508012509 53 254 13.0 24.0 0.00 0.01 0.00 84 1024.3
20260508012010 53 207 10.0 24.0 0.00 0.01 0.00 83 1024.3
20260508011522 53 185 12.0 24.0 0.00 0.01 0.00 83 1024.2
20260508011008 53 209 10.0 17.0 0.00 0.01 0.00 83 1024.2
20260508010508 53 218 8.0 22.0 0.00 0.01 0.00 82 1024.1
20260508010027 53 246 12.0 22.0 0.00 0.01 0.00 80 1024.0
20260508005518 53 248 13.0 20.0 0.00 0.01 0.00 79 1024.1
20260508003506 54 208 10.0 19.0 0.00 0.01 0.00 77 1024.0
20260508003050 54 232 12.0 19.0 0.00 0.02 0.00 77 1023.9
20260508002508 54 200 13.0 19.0 0.00 0.02 0.00 78 1023.9
20260508001006 54 228 9.0 19.0 0.00 0.03 0.00 79 1023.9
20260508000513 53 219 9.0 19.0 0.00 0.03 0.00 79 1023.8
20260507235512 53 235 11.0 18.0 0.00 0.03 0.00 79 1023.6
20260507235010 53 210 12.0 21.0 0.00 0.03 0.00 80 1023.6
20260507234525 53 233 13.0 21.0 0.00 0.03 0.00 80 1023.6
20260507234010 53 222 10.0 18.0 0.00 0.03 0.00 81 1023.5
20260507233510 53 229 9.0 22.0 0.00 0.03 0.00 81 1023.4